Regional Weather Roundup
Issued by NWS Albany, NY

Home | Current Version | Previous Version | Text Only | Print | Product List | Glossary On
Versions: 1 2 3 4 5 6 7 8 9 10 11 12 13 14 15 16 17 18 19 20 21 22 23 24 25 26 27 28 29 30 31 32 33 34 35 36 37 38 39 40 41 42 43 44 45 46 47 48 49 50
000
ASUS41 KALY 291610
RWRALY

NEW YORK STATE HOURLY WEATHER ROUNDUP
NATIONAL WEATHER SERVICE ALBANY NY
1200 PM EDT WED JUL 29 2015

NOTE: "FAIR" INDICATES FEW OR NO CLOUDS BELOW 12,000 FEET WITH NO
SIGNIFICANT WEATHER AND/OR NO OBSTRUCTIONS TO VISIBILITY.

NYZ032-033-038>043-046>054-057>066-NYZ062>081-291700-
EAST


CITY           SKY/WX    TMP DP  RH WIND       PRES   REMARKS
ALBANY         PTSUNNY   87  64  46 VRB5      29.98F
GLENS FALLS    PTSUNNY   83  70  64 SE7       29.97S
POUGHKEEPSIE   MOSUNNY   88  66  48 VRB3      29.98F HX  90
NEWBURGH       SUNNY     84  68  58 CALM      30.01F
MONTGOMERY     MOSUNNY   89  66  46 VRB3      29.99F HX  91
WHITE PLAINS   MOSUNNY   89  65  44 NW5       29.99F HX  91
ISLIP          CLOUDY    87  71  58 S9        29.96F HX  93
NEW YORK CITY  PTSUNNY   91  64  40 NE6       29.97F HX  92
CENTRAL PARK   SUNNY     92  61  35 CALM      30.01S HX  92
$$

NYZ005>009-017-018-044>046-055-056-291700-
CENTRAL


CITY           SKY/WX    TMP DP  RH WIND       PRES   REMARKS
FULTON         PTSUNNY   86  68  54 S7        29.99S
SYRACUSE       CLOUDY    87  69  54 NE3       29.98F HX  91
ROME           MOSUNNY   84  62  47 CALM      30.01S
ELMIRA         PTSUNNY   85  69  58 CALM      30.01F
BINGHAMTON     MOSUNNY   81  64  56 W5        30.07R
MONTICELLO     MOSUNNY   84  61  45 N6        30.07S
$$

NYZ026>034-041>043-291700-
NORTH


CITY           SKY/WX    TMP DP  RH WIND       PRES   REMARKS
WATERTOWN      MOSUNNY   84  68  58 W12       29.97S
FORT DRUM      NOT AVBL
MASSENA        MOSUNNY   84  69  60 VRB7      29.94F
SARANAC LAKE   MOSUNNY   84  64  50 SW7       30.00F
PLATTSBURGH    MOSUNNY   80  69  69 SE12      29.93F
$$

NYZ001>004-010>016-019>021-291700-
WEST


CITY           SKY/WX    TMP DP  RH WIND       PRES   REMARKS
BUFFALO        PTSUNNY   87  60  40 SW12      29.98F
DUNKIRK        MOSUNNY   88  63  43 S7        29.98F
JAMESTOWN      PTSUNNY   81  64  57 S7        30.05F
WELLSVILLE     PTSUNNY   84  61  45 S9        30.09F
ROCHESTER      PTSUNNY   85  66  53 S3        29.99S
PENN YAN       PTSUNNY   85  67  54 S7        30.02F
$$

             KEY
       WCI = WIND CHILL INDEX
       VSB = VISIBILITY
       HX  = HEAT INDEX
$$



USA.gov is the U.S. government's official web portal to all federal, state and local government web resources and services.